星链-36284(STARLINK-36284)

导读 | 豆包AI

STARLINK-36284是美国SpaceX星链星座的一员,于2025年12月17日发射入轨,服务全球卫星互联网项目。星链计划旨在为全球提供低延迟、高速率的宽带互联网覆盖,尤其服务偏远地区、海洋航空等无地面网络场景,该卫星进一步扩充了星链低轨星座的服务容量,延续了SpaceX批量部署低轨通信卫星的节奏。

基本信息
目录编号:
67194
目录名称:
STARLINK-36284
国际标识:
2025-304C
轨道中心:
EARTH
卫星名称:
星链-36284
卫星全名:
星链-36284(STARLINK-36284)
卫星状态:
在轨 (已飞行87 天)
发射日期:
2025-12-17 UTC
国别 :
美国 (US)
星等 :
--
轨道信息
数据来源 国际轨道数据
星历时间: 2026-03-13T15:19:21+0800
18小时前
查看轨道信息
半长轴: 6950.143km
偏心率: 0.0004585
轨道倾角: 70.002°
近地点辐角 270.461°
升交点赤经 165.451°
平近点角 89.603°
近地点: 568.819km
远地点: 575.193km
周期: 96.106分钟
每日圈数: 14.983464
详细信息
固有亮度:
5
最大亮度:
2.5
卫星平台:
Starlink V1.0
覆盖范围:
全球
运营商:
太空探索技术公司
运营商所在国:
美国
制造商(研发单位):
太空探索技术公司
制造商所在国:
美国
使用方式:
暂无
卫星简介
Starlink 计划是 SpaceX 推出的全球卫星互联网项目,通过发射低轨道卫星,为全球尤其是偏远地区提供高速、低延迟的互联网服务。自 2019 年起,Starlink 已部署数千颗卫星,旨在缩小全球数字鸿沟,推动互联网普及。该项目还为军事、航空等行业提供通信支持,带来广泛经济效益。
2D轨道图
3D轨道图
轨道高度分析图
轨道倾角分析图
轨道综合分析图
查看轨道综合分析图